This is the latest recevied weather packets stored in our database for station/object NR0A-4. If no packets are shown the sender has not sent any weather packets the latest 10 day(s).
| Time | Temp. | Humidity | Pressure | Rain* | Wind** | Luminosity | Snow |
|---|---|---|---|---|---|---|---|
| 1788102904 | 28.33° C | 62% | 1008.7 hPa | 0 mm | - | 529 W/m² | - |
| 1788102604 | 28.33° C | 59% | 1008.7 hPa | 0 mm | - | 504 W/m² | - |
| 1788102304 | 28.33° C | 61% | 1008.8 hPa | 0 mm | - | 469 W/m² | - |
| 1788102004 | 28.33° C | 62% | 1008.7 hPa | 0 mm | - | 464 W/m² | - |
| 1788101704 | 28.33° C | 62% | 1008.8 hPa | 0 mm | - | 448 W/m² | - |
| 1788101405 | 27.78° C | 63% | 1008.6 hPa | 0 mm | - | 431 W/m² | - |
| 1788101104 | 27.22° C | 63% | 1008.7 hPa | 0 mm | - | 420 W/m² | - |
| 1788100804 | 27.22° C | 64% | 1008.6 hPa | 0 mm | - | 408 W/m² | - |
| 1788100504 | 26.67° C | 68% | 1008.6 hPa | 0 mm | - | 387 W/m² | - |
| 1788100204 | 26.67° C | 67% | 1008.7 hPa | 0 mm | - | 374 W/m² | - |
| 1788099904 | 26.11° C | 69% | 1008.7 hPa | 0 mm | - | 366 W/m² | - |
| 1788099605 | 25.56° C | 70% | 1008.7 hPa | 0 mm | - | 346 W/m² | - |
| 1788099304 | 25° C | 72% | 1008.7 hPa | 0 mm | - | 327 W/m² | - |
| 1788099004 | 25° C | 73% | 1008.7 hPa | 0 mm | - | 292 W/m² | - |
| 1788098704 | 24.44° C | 74% | 1008.8 hPa | 0 mm | - | 276 W/m² | - |
| 1788098404 | 23.89° C | 75% | 1008.8 hPa | 0 mm | - | 204 W/m² | - |
| 1788098106 | 23.89° C | 76% | 1008.8 hPa | 0 mm | - | 95 W/m² | - |
| 1788097804 | 23.33° C | 77% | 1008.8 hPa | 0 mm | - | 67 W/m² | - |
| 1788097504 | 23.33° C | 78% | 1008.8 hPa | 0 mm | - | 70 W/m² | - |
| 1788097204 | 23.33° C | 78% | 1008.9 hPa | 0 mm | - | 60 W/m² | - |
| 1788096904 | 23.33° C | 79% | 1008.9 hPa | 0 mm | - | 58 W/m² | - |
| 1788096604 | 22.78° C | 79% | 1008.9 hPa | 0 mm | - | 54 W/m² | - |
| 1788096304 | 22.78° C | 80% | 1008.9 hPa | 0 mm | - | 49 W/m² | - |
| 1788096008 | 22.22° C | 80% | 1008.8 hPa | 0 mm | - | 51 W/m² | - |
| 1788095704 | 22.22° C | 81% | 1008.9 hPa | 0 mm | - | 49 W/m² | - |
* Rain latest hour (hover to see other rain measurements)
** Current wind speed in m/s (hover to see current wind gust speed)